Location: downtown San Diego
(32.7310°N, 117.1990°W)
Time: 12:08:42
(UTC-07:00)

Terra - Pass Details

Date: 12 July 2018
Orbit: 701 x 703 km, 98.2° (Epoch: 20 September)

Event Time Altitude Azimuth Distance (km) Brightness Sun altitude
Exits shadow 22:12:38 28° 66° (ENE) 1,319 3.0 -23.1°
Drops below altitude 10° 22:16:26 10° 13° (NNE) 2,173 4.8 -23.7°
Sets 22:18:57 0° 2° (N) 3,095 5.9 -24.0°
